Погода в Варваре

Россия / Тюменская область     57°26′41″N   67°14′14″E
темп.,
°C
ветер,
м/с
пор.,
м/с
влажн.,
%
обл.,
%
осадки,
мм/ч
давл.,
гПа
погр.,
м
15 мая, сб
сб1523:00+20юз310485 0.0 1019177
02:00+18зюз365430 0.0 1019100
05:00+17з28535 0.0 1019138
08:00+24з24395 0.0 1019338
11:00+28з47285 0.0 10181906
14:00+30з562440 0.0 10173544
17:00+30з57225 0.0 10153230
20:00+27юз4122990 0.0 1013553
16 мая, вс
вс1623:00+21з374784 0.1 1014123
02:00+19зюз3565100 0.3 1015108
05:00+17з2107277 0.3 1016287
08:00+22зсз365240 0.0 1016561
11:00+27зсз473933 0.0 10161529
14:00+30зсз51029100 0.0 10152559
17:00+31зсз6122542 0.0 10142990
20:00+26з253885 0.0 101485
17 мая, пн
пн1723:00+21з2248100 0.0 101419
02:00+20зсз21048100 0.0 1014217
05:00+18юз225550 0.0 101545
08:00+25з48395 0.0 1015472
11:00+30з610233 0.0 10143174
14:00+32зсз7111890 0.0 10134244
17:00+30з51023100 0.0 10113264
20:00+20сз5135775 0.4 1014854
18 мая, вт
вт1823:00+17зюз36685 0.4 1013130
02:00+17з3107029 0.1 1012226
05:00+16з28750 0.1 1011154
08:00+20з2558100 0.0 1011275
11:00+24зсз584380 0.0 10102184
14:00+19зсз5105015 0.0 10111685
17:00+20ссз7116013 0.2 10111561
20:00+14ссз6117555 0.4 1014947
19 мая, ср
ср1923:00+11с61278100 0.4 1017908
02:00+11с6117281 0.0 1019939
05:00+9с512670 0.0 1022740
08:00+12ссв58390 0.0 10231110
11:00+15с57285 0.0 10241597
14:00+17с5727100 0.0 10241718
17:00+16ссв5630100 0.0 10251533
20:00+12ссв25415 0.0 1025158